DG3OBU-6 Weather Reports


time (UTC)temp
C
wind
direction
speed
KPH
gust
KPH
rain 1hr
cm
rain 24hr
cm
rain mn
cm
humidity
%
barometer
mb
20260503055003 15 99 0.0 0.0 0.00 0.00 0.00 85 1010.9
20260503054503 15 108 0.0 0.0 0.00 0.00 0.00 86 1010.9
20260503054003 14 109 0.0 0.0 0.00 0.00 0.00 87 1010.8
20260503053503 13 109 0.0 0.0 0.00 0.00 0.00 87 1010.8
20260503053003 13 109 0.0 0.0 0.00 0.00 0.00 87 1010.8
20260503052503 12 109 0.0 0.0 0.00 0.00 0.00 87 1010.8
20260503052002 12 109 0.0 0.0 0.00 0.00 0.00 87 1010.8
20260503051502 12 109 0.0 0.0 0.00 0.00 0.00 87 1010.8
20260503051002 11 109 0.0 0.0 0.00 0.00 0.00 87 1010.7
20260503050502 11 109 0.0 0.0 0.00 0.00 0.00 87 1010.7
20260503050002 11 109 0.0 0.0 0.00 0.00 0.00 87 1010.8
20260503035002 10 109 0.0 0.0 0.00 0.00 0.00 87 1011.6
20260503034502 10 109 0.0 0.0 0.00 0.00 0.00 87 1011.7
20260503034003 10 109 0.0 0.0 0.00 0.00 0.00 87 1011.6
20260503033503 10 109 0.0 0.0 0.00 0.00 0.00 87 1011.6
20260503033003 10 109 0.0 0.0 0.00 0.00 0.00 87 1011.7
20260503032503 10 109 0.0 0.0 0.00 0.00 0.00 87 1011.6
20260503032003 10 109 0.0 0.0 0.00 0.00 0.00 86 1011.6
20260503031503 10 109 0.0 0.0 0.00 0.00 0.00 86 1011.6
20260503031002 10 109 0.0 0.0 0.00 0.00 0.00 86 1011.7
20260503030503 10 108 0.0 0.0 0.00 0.00 0.00 86 1011.6
20260503030003 10 108 0.0 0.0 0.00 0.00 0.00 86 1011.6
20260503025503 10 108 0.0 0.0 0.00 0.00 0.00 86 1011.6
20260503025003 10 108 0.0 0.0 0.00 0.00 0.00 86 1011.5
20260503024502 10 108 0.0 0.0 0.00 0.00 0.00 86 1011.5
20260503024002 10 108 0.0 0.0 0.00 0.00 0.00 86 1011.5
20260503023502 10 108 0.0 0.0 0.00 0.00 0.00 85 1011.5
20260503023002 10 108 0.0 0.0 0.00 0.00 0.00 85 1011.7
20260503022502 10 108 0.0 0.0 0.00 0.00 0.00 85 1011.7
20260503022003 10 108 0.0 0.0 0.00 0.00 0.00 85 1011.6
20260503021503 11 108 0.0 0.0 0.00 0.00 0.00 85 1011.7
20260503021002 11 108 0.0 0.0 0.00 0.00 0.00 85 1011.8
20260503020502 11 108 0.0 0.0 0.00 0.00 0.00 85 1011.9
20260503020003 10 108 0.0 0.0 0.00 0.00 0.00 85 1012.0
20260503015502 10 108 0.0 0.0 0.00 0.00 0.00 84 1012.0
20260503015002 11 108 0.0 0.0 0.00 0.00 0.00 84 1012.1
20260503014502 11 108 0.0 0.0 0.00 0.00 0.00 84 1012.1
20260503014002 11 108 0.0 0.0 0.00 0.00 0.00 84 1012.1
20260503013502 11 108 0.0 0.0 0.00 0.00 0.00 84 1012.2
20260503012502 12 108 0.0 0.0 0.00 0.00 0.00 83 1012.4
20260503012002 12 108 0.0 0.0 0.00 0.00 0.00 83 1012.4
20260503011502 12 108 0.0 0.0 0.00 0.00 0.00 83 1012.5
20260503011002 12 108 0.0 0.0 0.00 0.00 0.00 83 1012.5
20260503010003 13 108 0.0 0.0 0.00 0.00 0.00 82 1012.4
20260503005502 13 108 0.0 0.0 0.00 0.00 0.00 82 1012.5
20260503005002 13 108 0.0 0.0 0.00 0.00 0.00 82 1012.5
20260503004502 13 108 0.0 0.0 0.00 0.00 0.00 81 1012.5
20260503004002 13 108 0.0 0.0 0.00 0.00 0.00 80 1012.4
20260503003502 14 108 0.0 0.0 0.00 0.00 0.00 80 1012.5
20260503003003 15 108 0.0 0.0 0.00 0.00 0.00 80 1012.5
20260503002503 15 108 0.0 0.0 0.00 0.00 0.00 79 1012.5
20260503002003 15 108 0.0 0.0 0.00 0.00 0.00 79 1012.6
20260503001503 15 108 0.0 0.0 0.00 0.00 0.00 78 1012.5
20260503001003 16 108 0.0 0.0 0.00 0.00 0.00 78 1012.6
20260503000502 16 108 0.0 0.0 0.00 0.00 0.00 78 1012.7
20260503000003 16 108 0.0 0.0 0.00 0.00 0.00 78 1012.7
20260502235502 16 108 0.0 0.0 0.00 0.00 0.00 78 1012.5
20260502235002 16 256 0.0 0.0 0.00 0.00 0.00 78 1012.6
20260502234502 16 256 0.0 0.0 0.00 0.00 0.00 78 1012.5
20260502234002 16 256 0.0 0.0 0.00 0.00 0.00 78 1012.7
20260502233502 16 256 0.0 0.0 0.00 0.00 0.00 78 1012.7
20260502233002 16 256 0.0 0.0 0.00 0.00 0.00 77 1013.1
20260502232502 16 256 0.0 0.0 0.00 0.00 0.00 77 1013.3
20260502232002 16 256 0.0 0.0 0.00 0.00 0.00 77 1013.8
20260502231502 16 256 0.0 0.0 0.00 0.00 0.00 76 1014.0
20260502231002 16 256 0.0 0.0 0.00 0.00 0.00 76 1014.1
20260502230502 16 256 0.0 0.0 0.00 0.00 0.00 76 1014.1
20260502230002 16 256 0.0 0.0 0.00 0.00 0.00 75 1014.1
20260502225502 17 258 0.0 0.0 0.00 0.00 0.00 74 1014.1
20260502225002 17 262 0.0 0.0 0.00 0.00 0.00 74 1014.0
20260502224502 17 262 0.0 0.0 0.00 0.00 0.00 74 1013.9
20260502224003 17 262 0.0 0.0 0.00 0.00 0.00 75 1013.9
20260502223503 17 265 0.0 0.0 0.00 0.00 0.00 76 1013.9
20260502223003 16 254 12.9 0.0 0.00 0.00 0.00 78 1014.1
20260502222503 15 247 0.0 0.0 0.00 0.00 0.00 81 1013.9
20260502222002 14 254 0.0 0.0 0.00 0.00 0.00 82 1013.8
20260502221502 14 254 0.0 0.0 0.00 0.00 0.00 82 1013.9
20260502221002 14 254 0.0 0.0 0.00 0.00 0.00 82 1014.0
20260502220502 14 256 0.0 0.0 0.00 0.00 0.00 82 1013.6
20260502215502 13 256 0.0 0.0 0.00 0.00 0.00 82 1013.3
20260502215002 13 256 0.0 0.0 0.00 0.00 0.00 82 1013.3
20260502214502 13 256 0.0 0.0 0.00 0.00 0.00 81 1013.3
20260502214002 14 256 0.0 0.0 0.00 0.00 0.00 82 1013.4
20260502213502 14 256 0.0 0.0 0.00 0.00 0.00 82 1013.5
20260502213002 13 256 0.0 0.0 0.00 0.00 0.00 82 1013.4
20260502212502 13 256 0.0 0.0 0.00 0.00 0.00 81 1013.4
20260502212002 13 256 0.0 0.0 0.00 0.00 0.00 81 1013.4
20260502211502 13 256 0.0 0.0 0.00 0.00 0.00 81 1013.4
20260502211002 13 256 0.0 0.0 0.00 0.00 0.00 80 1013.3
20260502210502 14 256 0.0 0.0 0.00 0.00 0.00 80 1013.3
20260502210003 14 256 0.0 0.0 0.00 0.00 0.00 80 1013.4
20260502205503 14 256 0.0 0.0 0.00 0.00 0.00 80 1013.4
20260502205003 14 256 0.0 0.0 0.00 0.00 0.00 80 1013.4
20260502204503 14 256 0.0 0.0 0.00 0.00 0.00 80 1013.4
20260502204003 14 256 0.0 0.0 0.00 0.00 0.00 79 1013.5
20260502203503 15 256 0.0 0.0 0.00 0.00 0.00 79 1013.5
20260502203003 14 256 0.0 0.0 0.00 0.00 0.00 79 1013.5
20260502202503 14 256 0.0 0.0 0.00 0.00 0.00 79 1013.6
20260502202003 15 256 0.0 0.0 0.00 0.00 0.00 79 1013.6
20260502201503 15 256 0.0 0.0 0.00 0.00 0.00 78 1013.6
20260502201003 15 256 0.0 0.0 0.00 0.00 0.00 77 1013.6
20260502200502 15 256 0.0 0.0 0.00 0.00 0.00 77 1013.7
20260502195502 15 256 0.0 0.0 0.00 0.00 0.00 77 1013.7
20260502195002 16 256 0.0 0.0 0.00 0.00 0.00 77 1013.6
20260502194502 16 256 0.0 0.0 0.00 0.00 0.00 76 1013.6
20260502194002 16 256 0.0 0.0 0.00 0.00 0.00 75 1013.6
20260502193502 16 256 0.0 0.0 0.00 0.00 0.00 75 1013.6
20260502193002 16 256 0.0 0.0 0.00 0.00 0.00 74 1013.6
20260502192502 17 256 0.0 0.0 0.00 0.00 0.00 74 1013.5
20260502192002 17 256 0.0 0.0 0.00 0.00 0.00 74 1013.5
20260502191502 17 256 0.0 0.0 0.00 0.00 0.00 73 1013.4
20260502191003 17 256 0.0 0.0 0.00 0.00 0.00 72 1013.4
20260502190503 18 256 0.0 0.0 0.00 0.00 0.00 72 1013.4
20260502190003 18 256 0.0 0.0 0.00 0.00 0.00 71 1013.4
20260502185503 18 256 0.0 0.0 0.00 0.00 0.00 71 1013.3
20260502185003 19 256 0.0 0.0 0.00 0.00 0.00 70 1013.3
20260502184503 19 256 0.0 0.0 0.00 0.00 0.00 69 1013.3
20260502184003 20 256 0.0 0.0 0.00 0.00 0.00 68 1013.4
20260502183503 20 256 0.0 0.0 0.00 0.00 0.00 68 1013.4
20260502183003 20 256 0.0 0.0 0.00 0.00 0.00 67 1013.5
20260502182503 21 256 0.0 0.0 0.00 0.00 0.00 66 1013.5
20260502182002 21 256 0.0 0.0 0.00 0.00 0.00 64 1013.6
20260502181502 21 256 0.0 0.0 0.00 0.00 0.00 61 1013.5
20260502181002 22 256 0.0 0.0 0.00 0.00 0.00 59 1013.5
20260502180502 22 256 0.0 0.0 0.00 0.00 0.00 59 1013.5
20260502170503 24 256 0.0 0.0 0.00 0.00 0.00 48 1013.7
20260502164003 25 245 0.0 0.0 0.00 0.00 0.00 46 1013.9
20260502163502 25 245 0.0 0.0 0.00 0.00 0.00 46 1013.9
20260502162502 25 245 0.0 0.0 0.00 0.00 0.00 45 1014.1
20260502162002 25 245 0.0 0.0 0.00 0.00 0.00 46 1014.2
20260502161502 25 245 0.0 0.0 0.00 0.00 0.00 45 1014.2
20260502161002 25 243 0.0 0.0 0.00 0.00 0.00 43 1014.2
20260502160502 25 225 0.0 0.0 0.00 0.00 0.00 42 1014.2
20260502152003 26 211 0.0 0.0 0.00 0.00 0.00 41 1014.5
20260502151503 26 235 0.0 0.0 0.00 0.00 0.00 41 1014.6
20260502151003 26 254 0.0 0.0 0.00 0.00 0.00 40 1014.6
20260502150502 26 245 3.2 0.0 0.00 0.00 0.00 41 1014.7
20260502130503 26 245 0.0 0.0 0.00 0.00 0.00 36 1016.0
20260502123502 25 269 0.0 0.0 0.00 0.00 0.00 37 1016.3
20260502123002 26 274 0.0 0.0 0.00 0.00 0.00 37 1016.4
20260502122502 26 170 0.0 0.0 0.00 0.00 0.00 38 1016.4
20260502122002 25 255 0.0 0.0 0.00 0.00 0.00 39 1016.5
20260502121502 25 189 0.0 0.0 0.00 0.00 0.00 38 1016.5
20260502121002 25 222 0.0 0.0 0.00 0.00 0.00 38 1016.6
20260502120502 25 243 0.0 0.0 0.00 0.00 0.00 39 1016.6
20260502115502 25 231 4.8 0.0 0.00 0.00 0.00 36 1016.9
20260502115003 25 205 9.7 0.0 0.00 0.00 0.00 39 1016.9
20260502114503 25 222 0.0 0.0 0.00 0.00 0.00 39 1017.0
20260502114003 25 206 0.0 0.0 0.00 0.00 0.00 38 1017.0
20260502113503 25 193 0.0 0.0 0.00 0.00 0.00 37 1017.1
20260502113003 25 208 0.0 0.0 0.00 0.00 0.00 38 1017.2
20260502112503 25 191 0.0 0.0 0.00 0.00 0.00 37 1017.3
20260502112003 25 218 0.0 0.0 0.00 0.00 0.00 37 1017.3
20260502111502 25 180 0.0 0.0 0.00 0.00 0.00 37 1017.3
20260502111002 25 186 0.0 0.0 0.00 0.00 0.00 41 1017.4
20260502110503 24 210 0.0 0.0 0.00 0.00 0.00 38 1017.5
20260502110002 24 247 0.0 0.0 0.00 0.00 0.00 38 1017.5
20260502105502 23 257 0.0 0.0 0.00 0.00 0.00 38 1017.5
20260502105002 24 191 0.0 0.0 0.00 0.00 0.00 38 1017.4
20260502104502 24 214 0.0 0.0 0.00 0.00 0.00 38 1017.6
20260502104002 24 218 9.7 0.0 0.00 0.00 0.00 40 1017.6
20260502103502 23 145 0.0 0.0 0.00 0.00 0.00 41 1017.7
20260502103002 23 211 0.0 0.0 0.00 0.00 0.00 40 1017.8
20260502102502 24 244 0.0 0.0 0.00 0.00 0.00 39 1017.8
20260502102002 23 191 4.8 0.0 0.00 0.00 0.00 40 1017.9
20260502101502 23 204 0.0 0.0 0.00 0.00 0.00 41 1017.9
20260502101002 23 186 0.0 0.0 0.00 0.00 0.00 41 1018.1
20260502100502 23 149 0.0 0.0 0.00 0.00 0.00 41 1018.1
20260502091503 22 193 8.0 0.0 0.00 0.00 0.00 40 1018.5
20260502091002 22 136 0.0 0.0 0.00 0.00 0.00 42 1018.5
20260502090502 22 177 0.0 0.0 0.00 0.00 0.00 42 1018.6
20260502071502 18 153 0.0 0.0 0.00 0.00 0.00 48 1019.1
20260502071002 18 193 0.0 0.0 0.00 0.00 0.00 48 1019.1
20260502070502 18 279 0.0 0.0 0.00 0.00 0.00 49 1019.2
20260502070002 17 283 0.0 0.0 0.00 0.00 0.00 50 1019.3
20260502065502 17 241 0.0 0.0 0.00 0.00 0.00 52 1019.3
20260502065002 17 216 0.0 0.0 0.00 0.00 0.00 51 1019.3
20260502064502 17 214 0.0 0.0 0.00 0.00 0.00 51 1019.3
20260502064002 17 234 0.0 0.0 0.00 0.00 0.00 53 1019.4
20260502063502 17 234 0.0 0.0 0.00 0.00 0.00 53 1019.4
20260502063002 17 208 0.0 0.0 0.00 0.00 0.00 52 1019.5
20260502062502 16 263 0.0 0.0 0.00 0.00 0.00 53 1019.4
20260502062002 16 103 0.0 0.0 0.00 0.00 0.00 54 1019.4
20260502061502 16 231 0.0 0.0 0.00 0.00 0.00 56 1019.5
20260502061002 16 222 0.0 0.0 0.00 0.00 0.00 56 1019.6
20260502060502 15 234 0.0 0.0 0.00 0.00 0.00 59 1019.6
20260502060002 15 234 0.0 0.0 0.00 0.00 0.00 61 1019.7